Starlink 36885

operational
NORAD ID: 68049 Int'l Des: 2026-041 Owner: SPXS Country: US Constellation: starlink
LEOCIRCULAR

Über Starlink 36885

Beschreibung wird geladen...

Live-Position

3D-Globus wird geladen...

Nächste Überflüge

Höhenverlauf

Altitude vs Time

uPlot chart will show altitude changes over time

Zweizeiliger Elementsatz

1 68049C 26041K 26061.44215278 .00473980 00000+0 63560-3 0 611
2 68049 53.1641 99.6778 0008235 277.6818 147.5325 16.05265662 19
Epoch: 2. März 2026 • Age: 30 hours

Aktueller Status

Höhe 264.5 km
Geschwindigkeit 7.75 km/s
Subsatellitenpunkt 33.98°N, 10.64°W
Startdatum 2. März 2026
Alter 1 days
Typ internet

Technische Details

Klassifizierung Payload
Masse 575.00 kg
Trockenmasse 530.00 kg
Gesamtmasse 575.00 kg
Länge 0.30 m
Durchmesser 4.10 m
Spannweite 29.00 m
Form Box + pan
Hersteller SPXS
Bus-Typ Starlink V2MO
Phasenstatus In Orbit
Besitzer/Staat SPXS/US

Große Konstellationen

Loading constellations...